Location: Newark
(45.4422°N, 16.2769°E)
Time: 02:34:10
(UTC+00:00)

Vanguard 2 - Pass Details

Date: 11 December 2019
Orbit: 553 x 2938 km, 32.9° (Epoch: 25 January)

Event Time Altitude Azimuth Distance (km) Brightness Sun altitude
Rises 01:49:57 0° 249° (WSW) 6,180 - -46.9°
Reaches altitude 10° 01:53:51 10° 245° (WSW) 5,384 - -46.3°
Exits shadow 02:08:37 52° 188° (S) 3,417 10.4 -43.8°
Maximum altitude 02:10:01 53° 175° (S) 3,395 10.5 -43.5°
Drops below altitude 10° 02:25:56 10° 106° (ESE) 5,312 12.4 -40.8°
Sets 02:29:45 0° 102° (ESE) 6,096 12.9 -40.1°
